CAPE
0 0 0 0 0 0 0 0 0 0 0 0 0 0 0 0 0 0 0 0 0 0 0 0 0 0 0 0 0 0 0 1 0 33 47 45 7 0 6 13 22 20 2 0
0 0 0 0 0 0 0 0 0 0 0 0 0 0 0 0 0 0 0 0 0 0 0 0 0 0 0 0 0 0 1 3 82 274 53 130 21 3 3 10 23 28 14 4
0 0 0 0 0 0 0 0 0 0 0 0 0 0 0 0 0 0 0 0 0 0 0 0 5 0 0 0 0 6 3 30 269 92 66 2 0 0 0 0 2 14 50 21
0 0 0 0 0 0 0 0 0 0 0 0 0 0 0 0 0 0 0 0 0 0 0 0 1 0 0 0 0 0 7 110 232 77 31 0 0 0 1 0 0 2 24 29
0 0 0 0 0 0 0 0 0 0 0 0 0 0 0 0 0 0 0 0 0 0 0 0 0 0 0 0 0 0 45 226 164 66 23 0 0 0 0 0 0 1 10 84
0 0 0 0 0 0 0 0 0 0 0 0 0 0 0 0 0 0 0 0 0 0 0 0 0 0 0 0 0 0 30 199 160 30 0 0 0 0 0 0 0 6 56 74
0 0 0 0 0 0 0 0 0 0 0 0 0 0 0 0 0 0 0 0 0 0 0 0 0 0 0 0 0 1 26 73 89 9 0 0 0 0 0 0 0 0 27 61
0 0 0 0 0 0 0 0 0 0 0 0 0 0 0 0 0 0 0 0 0 0 0 0 0 0 0 0 0 4 5 0 3 0 0 0 0 0 0 3 30 3 42 86
0 0 0 0 0 0 0 0 0 0 0 0 0 0 0 0 0 0 0 0 0 0 0 0 0 0 0 0 0 0 0 0 0 0 0 0 0 1 21 39 31 26 91 91
0 0 0 0 0 0 0 0 0 0 0 0 0 0 0 0 0 0 0 0 0 0 0 0 0 0 0 0 0 0 0 0 0 0 0 4 0 23 33 40 4 11 49 102
0 0 0 0 0 0 0 0 0 0 0 0 0 0 0 0 0 0 0 0 0 0 0 0 0 0 0 0 0 0 0 0 0 0 0 0 0 0 8 7 5 15 52 108
0 0 0 0 0 0 0 0 0 0 0 0 0 0 0 0 0 0 0 0 0 0 0 0 0 0 0 0 0 0 0 0 0 0 0 0 0 0 2 2 0 20 41 101
0 0 0 0 0 0 0 0 0 0 0 0 0 0 0 0 0 0 0 0 0 0 0 0 0 0 0 0 0 0 0 0 0 0 0 0 0 0 0 1 0 3 35 70
0 0 0 0 0 0 0 0 0 0 0 0 0 0 0 0 0 2 7 0 0 0 0 0 0 0 0 0 0 0 0 0 0 0 0 0 0 0 0 8 2 2 14 48
0 0 0 0 0 0 0 0 0 0 0 0 0 0 0 0 0 7 15 2 0 0 0 0 0 0 0 0 0 0 0 0 0 0 0 0 0 0 0 6 6 3 0 24
0 0 0 0 0 0 0 0 0 0 0 0 0 0 0 0 0 8 20 12 0 0 0 0 0 0 0 0 0 0 0 0 0 0 0 0 0 0 0 0 0 1 0 0
0 0 0 0 0 0 0 0 0 0 0 0 0 0 0 0 0 0 7 11 0 0 0 0 0 0 0 0 0 0 0 0 0 0 0 0 0 0 0 0 0 0 0 0
0 0 0 0 0 0 0 0 0 0 0 0 0 0 0 0 0 0 0 1 0 0 0 0 0 0 0 0 0 0 0 0 0 0 0 0 0 0 0 0 0 0 0 0
0 0 0 0 0 0 0 0 0 0 0 0 0 0 0 0 0 0 0 0 0 0 0 0 0 0 0 0 0 0 0 0 0 0 0 0 0 0 0 0 0 0 0 0
0 0 0 0 0 0 0 0 0 0 0 0 0 0 0 0 0 0 0 0 0 0 0 0 0 0 0 0 0 0 0 0 0 0 0 0 0 0 0 0 0 0 0 0
0 0 0 0 0 0 0 0 0 0 0 0 0 0 0 0 0 0 0 0 0 0 0 0 0 0 0 0 0 0 0 0 0 0 0 0 0 0 0 0 0 0 0 0
1 0 0 0 0 0 0 0 4 0 0 0 0 0 0 0 0 0 0 0 0 0 0 0 0 0 0 0 0 0 0 0 0 0 0 0 0 0 0 0 0 0 0 0
0 4 1 0 0 0 0 0 0 0 0 0 0 0 0 0 0 0 0 0 0 0 0 0 0 0 0 0 0 0 0 0 0 0 0 0 0 0 0 0 0 0 0 0
2 5 1 0 0 0 0 0 0 0 0 0 0 0 0 0 0 0 0 0 0 0 0 0 0 0 0 0 0 0 0 0 0 0 0 0 0 0 0 0 0 0 0 0
2 1 0 1 0 0 0 0 0 0 0 0 0 0 0 0 0 0 0 0 0 2 0 0 0 0 0 0 0 0 0 0 0 0 0 0 0 0 0 0 0 0 0 0
2 0 0 2 0 0 0 0 0 0 0 0 0 0 0 0 0 0 0 0 0 2 0 0 0 0 0 0 0 0 0 0 0 0 0 0 0 0 0 0 0 0 0 0
CIN
-0 -0 -0 -0 -0 -0 -0 -0 -0 -0 -0 -0 -0 -0 -0 -0 -0 -0 -0 -0 -0 -0 -0 -0 -0 -0 -0 -0 -0 -0 -0 -486 -0 -294 -203 -117 -100 -0 -53 -52 -45 -60 -53 -0
-0 -0 -0 -0 -0 -0 -0 -0 -0 -0 -0 -0 -0 -0 -0 -0 -0 -0 -0 -0 -0 -0 -0 -0 -0 -0 -0 -0 -0 -0 -253 -291 -306 -152 -180 -83 -82 -75 -17 -45 -29 -41 -59 -23
-0 -0 -0 -0 -0 -0 -0 -0 -0 -0 -0 -0 -0 -0 -0 -0 -0 -0 -0 -0 -0 -0 -0 -228 -664 -0 -0 -0 -0 -477 -293 -362 -190 -187 -133 -23 -0 -0 -0 -0 -31 -45 -20 -33
-0 -0 -0 -0 -0 -0 -0 -0 -0 -0 -0 -0 -0 -0 -0 -0 -0 -0 -0 -0 -0 -0 -0 -0 -304 -0 -0 -0 -0 -0 -419 -272 -158 -154 -110 -0 -0 -0 -74 -0 -0 -19 -33 -28
-0 -0 -0 -0 -0 -0 -0 -0 -0 -0 -0 -0 -0 -0 -0 -0 -0 -0 -0 -0 -0 -0 -0 -0 -0 -0 -0 -0 -0 -0 -343 -187 -133 -113 -53 -0 -0 -0 -0 -0 -0 -12 -68 -22
-0 -0 -0 -0 -0 -0 -0 -0 -0 -0 -0 -0 -0 -0 -0 -0 -0 -0 -0 -0 -0 -0 -0 -0 -0 -0 -0 -0 -0 -0 -327 -160 -88 -126 -0 -0 -0 -0 -0 -0 -0 -52 -42 -34
-0 -0 -0 -0 -0 -0 -0 -0 -0 -0 -0 -0 -0 -0 -0 -0 -0 -0 -0 -0 -0 -0 -0 -0 -0 -0 -0 -0 -0 -264 -317 -197 -115 -132 -0 -0 -0 -0 -0 -0 -2 -0 -45 -30
-0 -0 -0 -0 -0 -0 -0 -0 -0 -0 -0 -0 -0 -0 -0 -0 -0 -0 -0 -0 -0 -0 -0 -0 -0 -0 -0 -0 -0 -427 -373 -0 -180 -0 -0 -0 -0 -0 -0 -44 -42 -12 -47 -34
-0 -0 -0 -0 -0 -0 -0 -0 -0 -0 -0 -0 -0 -0 -0 -0 -0 -0 -0 -0 -0 -0 -0 -0 -0 -0 -0 -0 -0 -0 -0 -0 -0 -0 -0 -0 -0 -7 -49 -47 -49 -59 -41 -44
-0 -0 -0 -0 -0 -0 -0 -0 -0 -0 -0 -0 -0 -0 -0 -0 -0 -0 -0 -0 -0 -0 -0 -0 -0 -0 -0 -0 -0 -0 -0 -0 -0 -0 -0 -19 -0 -38 -47 -45 -43 -63 -66 -47
-0 -0 -0 -0 -0 -0 -0 -0 -0 -0 -0 -0 -0 -0 -0 -0 -0 -0 -0 -0 -0 -0 -0 -0 -0 -0 -0 -0 -0 -0 -0 -0 -0 -0 -0 -0 -0 -2 -57 -84 -53 -61 -53 -37
-0 -0 -0 -0 -0 -0 -0 -0 -0 -0 -0 -0 -0 -0 -0 -0 -0 -0 -0 -0 -0 -0 -0 -0 -0 -0 -0 -0 -0 -0 -0 -0 -0 -0 -0 -0 -0 -0 -28 -76 -0 -44 -49 -36
-0 -0 -0 -0 -0 -0 -0 -0 -0 -0 -0 -0 -0 -0 -0 -0 -0 -0 -0 -0 -0 -0 -0 -0 -0 -0 -0 -0 -0 -0 -0 -0 -0 -0 -0 -0 -0 -0 -0 -69 -6 -33 -43 -43
-0 -0 -0 -0 -0 -0 -0 -0 -0 -0 -0 -0 -0 -0 -0 -0 -0 -174 -204 -0 -0 -0 -0 -0 -0 -0 -0 -0 -0 -0 -0 -0 -0 -0 -0 -0 -0 -0 -0 -59 -92 -64 -52 -45
-0 -0 -0 -0 -0 -0 -0 -0 -0 -0 -0 -0 -0 -0 -0 -0 -0 -149 -178 -336 -0 -0 -0 -0 -0 -0 -0 -0 -0 -0 -0 -0 -0 -0 -0 -0 -0 -0 -0 -40 -71 -70 -0 -70
-0 -0 -0 -0 -0 -0 -0 -0 -0 -0 -0 -0 -0 -0 -0 -0 -1 -193 -196 -314 -0 -0 -0 -0 -0 -0 -0 -0 -0 -0 -0 -0 -0 -0 -0 -0 -0 -0 -0 -0 -0 -50 -0 -0
-0 -0 -0 -0 -0 -0 -0 -0 -0 -0 -0 -0 -0 -0 -0 -0 -0 -0 -239 -297 -0 -0 -0 -0 -0 -0 -0 -0 -0 -0 -0 -0 -0 -0 -0 -0 -0 -0 -0 -0 -0 -0 -0 -0
-0 -0 -0 -0 -0 -0 -0 -0 -0 -0 -0 -0 -0 -0 -0 -0 -0 -0 -0 -93 -0 -0 -0 -0 -0 -0 -0 -0 -0 -0 -0 -0 -0 -0 -0 -0 -0 -0 -0 -0 -0 -0 -0 -0
-0 -0 -0 -0 -0 -0 -0 -0 -0 -0 -0 -0 -0 -0 -0 -0 -0 -0 -0 -0 -0 -0 -0 -0 -0 -0 -0 -0 -0 -0 -0 -0 -0 -0 -0 -0 -0 -0 -0 -0 -0 -0 -0 -0
-0 -0 -0 -0 -0 -0 -0 -0 -0 -0 -0 -0 -0 -0 -0 -0 -0 -0 -0 -0 -0 -0 -0 -0 -0 -0 -0 -0 -0 -0 -0 -0 -0 -0 -0 -0 -0 -0 -0 -0 -0 -0 -0 -0
-0 -0 -0 -0 -0 -0 -0 -0 -0 -0 -0 -0 -0 -0 -0 -0 -0 -0 -0 -0 -0 -0 -0 -0 -0 -0 -0 -0 -0 -0 -0 -0 -0 -0 -0 -0 -0 -0 -0 -0 -0 -0 -0 -0
-0 -0 -0 -0 -0 -0 -0 -17 -36 -0 -0 -0 -0 -0 -0 -0 -0 -0 -0 -0 -0 -0 -0 -0 -0 -0 -0 -0 -0 -0 -0 -0 -0 -0 -0 -0 -0 -0 -0 -0 -0 -0 -0 -0
-0 -0 -0 -0 -6 -0 -0 -0 -0 -0 -0 -0 -0 -0 -0 -0 -0 -0 -0 -0 -0 -0 -0 -0 -0 -0 -0 -0 -0 -0 -0 -0 -0 -0 -0 -0 -0 -0 -0 -0 -0 -0 -0 -0
-0 -0 -0 -0 -0 -0 -0 -0 -0 -0 -0 -0 -0 -0 -0 -0 -0 -0 -0 -0 -0 -0 -0 -0 -0 -0 -0 -0 -0 -0 -0 -0 -0 -0 -0 -0 -0 -0 -0 -0 -0 -0 -0 -0
-0 -0 -0 -0 -0 -0 -0 -0 -0 -0 -0 -0 -0 -0 -0 -0 -0 -0 -0 -0 -0 -305 -0 -0 -0 -0 -0 -0 -0 -0 -0 -0 -0 -0 -0 -0 -0 -0 -0 -0 -0 -0 -0 -0
-5 -0 -0 -0 -0 -0 -0 -0 -0 -0 -0 -0 -0 -0 -0 -0 -0 -0 -0 -0 -0 -276 -0 -0 -0 -0 -0 -0 -0 -0 -0 -0 -0 -0 -0 -0 -0 -0 -0 -0 -0 -0 -0 -0
Wind_Speed
25 28 24 32 38 45 41 34 39 38 39 28 12 28 22 28 5 8 11 8 8 5 4 1 6 3 2 5 8 10 12 14 17 20 20 19 17 16 15 13 14 13 12 7
32 35 28 38 45 46 43 39 41 41 37 23 39 34 29 23 14 10 12 9 6 9 1 3 7 3 2 5 7 10 11 14 17 18 17 18 19 17 14 13 12 12 11 8
31 35 21 20 29 27 24 28 32 36 39 32 33 37 34 31 23 13 7 6 7 4 2 6 7 4 3 6 8 9 10 14 16 18 18 20 22 21 20 15 14 16 13 12
44 32 20 22 24 19 34 16 20 35 40 22 15 19 30 24 33 29 34 19 9 1 7 8 5 5 5 7 8 9 10 14 14 17 18 21 22 23 20 17 16 17 17 13
39 24 28 29 31 22 38 28 38 41 41 20 38 24 34 27 29 21 6 9 6 9 10 7 9 7 7 8 9 10 12 13 13 16 17 21 24 24 22 19 18 17 15 15
36 26 28 30 38 27 42 34 32 36 24 17 27 25 37 30 30 9 13 5 9 11 9 8 9 9 7 9 10 10 12 13 12 15 17 20 22 24 24 21 19 17 15 16
31 30 39 29 21 33 26 18 19 21 14 15 26 24 36 28 6 3 4 8 11 11 11 10 10 9 8 9 10 11 12 12 13 14 16 17 19 22 24 22 16 16 16 18
31 34 27 22 23 21 30 18 18 18 20 26 22 17 35 31 31 2 9 10 12 11 11 10 10 10 10 11 11 11 12 13 13 14 15 16 17 19 20 18 16 18 19 20
27 38 30 30 26 20 25 29 21 34 28 21 20 31 33 30 13 9 10 10 11 10 10 12 12 11 12 13 13 12 13 14 14 14 15 15 18 19 17 17 17 19 18 19
27 32 43 25 28 48 47 22 23 28 17 18 24 24 25 12 7 11 10 13 10 9 11 12 13 12 13 15 14 14 14 15 15 15 15 15 18 19 19 18 21 19 19 19
47 28 20 32 28 34 28 31 31 28 29 25 33 39 29 8 11 13 14 12 12 12 12 13 14 14 14 16 15 15 16 17 16 15 16 17 19 20 21 18 21 20 20 20
52 35 40 42 27 38 36 31 22 36 22 30 33 39 23 16 15 17 15 13 13 13 13 14 15 15 15 16 16 16 17 17 17 17 18 19 19 20 21 18 22 22 22 19
29 50 48 36 35 33 34 38 33 34 27 29 32 37 22 6 10 18 15 13 15 14 14 14 15 16 17 17 17 17 18 18 18 18 20 20 20 21 21 20 22 23 24 22
28 38 45 41 31 30 35 30 28 27 36 27 33 26 20 5 12 14 16 15 14 16 15 15 16 17 18 17 18 18 19 20 20 20 20 20 19 21 22 22 19 21 19 20
25 44 41 55 42 32 36 38 26 23 22 20 30 13 11 11 16 20 20 16 14 15 14 15 18 19 19 18 18 19 19 21 21 20 20 21 22 23 23 25 21 20 23 20
26 40 43 47 61 51 43 36 35 32 33 26 24 25 14 15 17 14 18 16 15 17 15 16 19 21 21 20 20 20 20 21 21 21 21 22 23 23 24 25 24 22 20 24
32 32 37 52 47 50 55 50 41 30 29 27 29 24 10 10 16 17 17 18 17 18 16 17 21 22 22 21 21 21 21 21 22 21 22 23 25 24 26 26 27 27 27 23
41 38 35 46 39 49 48 44 43 40 27 25 33 24 16 15 8 15 17 20 19 18 17 18 20 21 23 21 22 21 20 22 23 22 23 24 26 27 26 26 27 27 24 25
43 37 37 40 44 40 41 35 37 34 35 28 24 26 15 13 14 10 17 20 22 21 19 18 20 20 22 22 22 21 19 21 22 23 24 26 27 27 27 27 27 27 26 28
33 36 36 34 39 51 41 36 29 27 43 30 24 21 20 19 16 13 17 20 23 22 19 18 17 16 21 22 21 21 20 20 22 23 26 28 28 28 28 27 27 27 27 28
31 35 47 39 36 37 29 27 23 32 42 30 29 26 23 20 16 8 14 18 22 22 21 16 16 19 22 20 20 21 21 21 22 24 25 27 27 28 28 27 25 25 26 27
30 35 39 36 35 35 24 27 27 27 33 30 34 26 19 21 14 14 14 18 20 22 19 18 16 18 18 21 20 20 23 22 22 23 25 26 26 26 27 26 26 26 26 28
27 23 34 30 24 18 13 13 22 22 21 24 32 29 16 14 12 10 13 15 18 21 22 19 16 15 16 20 22 22 23 22 21 22 24 26 26 25 26 27 27 27 28 27
23 28 31 31 25 23 15 16 16 19 22 25 25 28 22 17 14 13 12 12 14 19 21 18 15 17 15 21 22 24 19 23 21 22 22 24 25 26 25 25 26 26 27 27
23 27 27 30 25 23 20 20 21 22 22 23 24 27 21 20 18 16 14 13 14 18 19 17 18 18 18 18 20 15 17 21 23 23 20 19 22 22 22 24 25 26 26 26
24 23 26 28 25 27 29 25 22 22 23 23 22 22 23 23 19 16 15 14 16 19 18 18 17 17 17 19 17 19 18 18 19 19 19 18 16 14 16 18 17 6 23 23
Wind_Direction
243 250 231 200 209 237 258 274 260 239 240 283 259 301 242 240 240 218 207 244 250 303 357 178 168 147 72 19 11 9 12 14 12 8 10 14 18 18 13 15 16 24 31 50
246 218 209 210 228 234 251 264 242 245 239 293 269 247 241 232 229 216 226 247 283 331 12 130 146 130 58 31 22 17 17 16 13 14 18 19 16 20 20 27 39 39 39 71
225 259 237 232 259 261 212 212 218 228 260 282 287 250 248 245 305 333 334 307 322 311 171 148 147 125 58 42 34 32 27 19 18 18 18 19 17 22 27 42 43 31 50 58
252 241 246 227 218 223 214 226 268 222 259 284 299 305 287 300 277 305 303 328 338 117 142 140 129 115 75 52 48 41 38 24 30 24 22 20 26 29 39 47 46 44 45 74
251 243 222 250 215 238 216 268 261 253 251 285 234 299 273 291 250 237 329 352 85 127 136 128 130 109 80 63 54 57 35 32 41 27 28 18 21 28 35 40 42 51 71 80
253 260 250 235 253 250 225 258 261 259 278 227 212 289 273 250 274 205 354 48 108 118 106 106 109 102 75 72 68 56 42 42 46 33 32 27 27 26 32 41 52 54 85 109
251 248 249 253 236 245 245 245 260 269 246 238 270 282 229 279 325 336 37 124 123 108 104 113 117 103 81 81 76 62 56 59 58 48 45 39 41 37 37 43 72 85 105 93
243 248 213 206 205 214 197 219 247 258 267 272 278 276 238 240 263 333 137 119 116 109 106 113 117 106 92 93 88 75 80 82 72 66 65 55 56 54 52 63 80 81 101 107
240 245 250 194 241 203 236 200 209 253 267 281 279 262 261 284 326 104 116 109 118 106 108 114 116 107 101 104 101 88 98 93 87 78 74 81 67 65 73 77 95 99 109 140
248 247 236 252 235 226 201 247 239 250 214 266 271 266 263 317 111 121 118 127 111 93 105 110 116 107 106 112 104 95 106 104 97 93 86 99 81 75 80 96 93 111 118 145
236 250 255 233 224 189 230 231 245 253 254 258 255 242 270 187 161 144 140 131 118 115 118 116 117 114 112 114 103 98 107 108 99 102 88 91 83 80 87 108 101 110 122 146
229 241 241 235 247 237 236 238 223 241 252 251 254 235 281 286 156 145 138 126 122 122 119 117 122 116 117 118 107 102 111 112 103 96 90 96 93 90 96 115 103 121 132 156
239 231 234 244 240 239 231 233 238 242 250 248 243 230 267 314 132 144 131 123 123 116 114 116 119 121 124 123 117 111 117 120 110 103 97 110 104 97 99 107 109 131 134 144
248 235 227 230 232 231 233 230 233 239 240 247 221 255 267 194 145 139 136 129 126 126 122 121 126 129 130 127 125 121 123 128 120 109 99 115 117 105 104 104 141 153 165 154
256 234 232 229 233 234 237 235 224 214 196 228 244 240 262 159 151 152 149 135 126 128 126 128 135 137 137 133 129 128 124 127 122 111 101 114 123 112 113 113 148 152 142 167
258 237 234 232 224 229 235 241 233 235 238 245 244 249 258 172 167 151 153 144 141 143 135 136 142 142 142 139 137 134 127 128 124 118 114 120 129 126 126 134 142 148 153 136
249 241 235 229 230 233 236 232 235 226 233 236 240 250 238 195 167 166 163 157 152 150 144 143 148 148 147 143 139 139 131 126 127 122 119 125 134 139 133 134 127 114 117 144
241 241 239 231 227 234 238 236 236 236 228 231 242 244 201 194 196 183 174 167 160 154 150 148 147 147 151 143 141 134 127 129 129 127 129 133 140 137 138 138 134 135 142 139
235 234 233 230 226 240 238 234 234 233 235 233 235 242 223 221 257 244 181 174 167 163 157 151 151 148 145 145 142 136 129 130 131 134 135 142 144 144 140 131 126 133 136 137
226 230 229 235 228 231 238 234 238 238 239 235 234 237 235 239 223 242 177 174 170 164 156 152 149 147 147 145 140 138 136 132 136 138 142 146 148 146 148 139 130 137 136 137
225 228 225 234 236 238 242 224 235 232 239 243 235 240 239 230 213 230 181 174 173 166 162 155 152 153 154 146 143 143 142 143 141 141 142 145 145 147 147 142 136 131 138 132
234 229 226 231 234 232 274 228 239 255 249 248 238 237 234 240 214 242 189 182 176 170 161 159 158 157 154 152 148 148 151 147 141 141 144 146 145 143 145 144 145 142 139 144
233 237 232 231 237 249 273 240 252 261 263 260 243 236 227 223 215 216 201 192 187 174 170 166 165 160 159 158 155 153 156 148 145 143 147 151 150 147 147 148 149 153 154 150
248 252 236 238 240 252 267 267 277 271 270 269 263 244 229 224 216 226 213 196 189 178 171 167 165 163 164 161 159 159 151 152 149 149 147 151 151 152 150 151 153 153 156 159
249 253 241 237 247 251 258 282 279 276 274 275 269 259 232 231 230 224 229 218 197 183 175 171 168 165 166 167 160 157 153 152 154 155 150 148 152 151 149 154 154 159 165 162
252 252 236 232 253 247 258 271 283 276 274 276 272 262 254 247 235 228 224 216 199 183 182 175 173 169 167 170 165 159 157 156 154 154 155 154 152 150 149 149 147 175 164 164